Tracking 29892 objects as of 21-Nov-2024
HD Live streaming from Space Station
objects crossing your sky now

STARLINK-3332

Track STARLINK-3332 now!
10-day predictions
STARLINK-3332 is classified as:


NORAD ID: 50825
Int'l Code: 2022-001Y
Perigee: 545.9 km
Apogee: 547.9 km
Inclination: 53.2 °
Period: 95.4 minutes
Semi major axis: 6917 km
RCS: Unknown
Launch date: January 6, 2022
Source: United States (US)
Launch site: AIR FORCE EASTERN TEST RANGE (AFETR)
Your satellite tracking list
Your tracking list is empty




NASA's NSSDC Master Catalog

Two Line Element Set (TLE):
1 50825U 22001Y   24325.86541534  .00001438  00000-0  10843-3 0  9992
2 50825  53.2165 136.1977 0001437  84.0676 276.0480 15.08845149160148
Source of the keplerian elements: AFSPC